| time (UTC) | temp F | wind direction | speed MPH | gust MPH | rain 1hr in | rain 24hr in | rain mn in | humidity % | barometer mb |
| 20260508080042 | 49 | 121 | 0.0 | 1.0 | 0.00 | 0.00 | 0.00 | 85 | 1016.0 |
| 20260508074534 | 49 | 121 | 0.0 | 1.0 | 0.00 | 0.00 | 0.00 | 84 | 1016.0 |
| 20260508073042 | 49 | 122 | 0.0 | 2.0 | 0.00 | 0.00 | 0.00 | 84 | 1016.0 |
| 20260508071533 | 49 | 122 | 0.0 | 2.0 | 0.00 | 0.00 | 0.00 | 85 | 1015.9 |
| 20260508070029 | 49 | 123 | 0.0 | 0.0 | 0.00 | 0.00 | 0.00 | 86 | 1015.7 |
| 20260508064530 | 48 | 121 | 0.0 | 1.0 | 0.00 | 0.00 | 0.00 | 86 | 1015.7 |
| 20260508063027 | 48 | 120 | 0.0 | 2.0 | 0.00 | 0.00 | 0.00 | 87 | 1015.5 |
| 20260508061531 | 47 | 122 | 0.0 | 1.0 | 0.00 | 0.00 | 0.00 | 88 | 1015.3 |
| 20260508060021 | 46 | 122 | 0.0 | 1.0 | 0.00 | 0.00 | 0.00 | 88 | 1015.2 |
| 20260508054519 | 46 | 124 | 0.0 | 1.0 | 0.00 | 0.00 | 0.00 | 89 | 1015.2 |
| 20260508053021 | 45 | 124 | 0.0 | 0.0 | 0.00 | 0.00 | 0.00 | 89 | 1015.1 |
| 20260508051517 | 45 | 125 | 0.0 | 0.0 | 0.00 | 0.00 | 0.00 | 89 | 1014.9 |
| 20260508050020 | 45 | 124 | 0.0 | 0.0 | 0.00 | 0.00 | 0.00 | 89 | 1014.9 |
| 20260508044516 | 45 | 121 | 0.0 | 1.0 | 0.00 | 0.00 | 0.00 | 89 | 1014.9 |
| 20260508043017 | 45 | 121 | 0.0 | 1.0 | 0.00 | 0.00 | 0.00 | 89 | 1014.8 |
| 20260508041519 | 44 | 123 | 0.0 | 1.0 | 0.00 | 0.00 | 0.00 | 90 | 1014.8 |
| 20260508040014 | 44 | 122 | 0.0 | 1.0 | 0.00 | 0.00 | 0.00 | 90 | 1014.9 |
| 20260508034516 | 43 | 124 | 0.0 | 0.0 | 0.00 | 0.00 | 0.00 | 89 | 1014.8 |
| 20260508033012 | 43 | 124 | 0.0 | 0.0 | 0.00 | 0.00 | 0.00 | 89 | 1014.9 |
| 20260508031511 | 43 | 124 | 0.0 | 0.0 | 0.00 | 0.00 | 0.00 | 89 | 1014.8 |
| 20260508030008 | 44 | 123 | 0.0 | 1.0 | 0.00 | 0.00 | 0.00 | 89 | 1014.7 |
| 20260508024516 | 44 | 122 | 0.0 | 0.0 | 0.00 | 0.00 | 0.00 | 88 | 1014.8 |
| 20260508023004 | 44 | 122 | 0.0 | 1.0 | 0.00 | 0.00 | 0.00 | 88 | 1014.8 |
| 20260508021506 | 45 | 123 | 0.0 | 1.0 | 0.00 | 0.00 | 0.00 | 88 | 1014.7 |
| 20260508020004 | 45 | 122 | 0.0 | 0.0 | 0.00 | 0.00 | 0.00 | 87 | 1014.8 |
| 20260508014600 | 45 | 122 | 0.0 | 0.0 | 0.00 | 0.00 | 0.00 | 87 | 1014.7 |
| 20260508013059 | 45 | 120 | 0.0 | 0.0 | 0.00 | 0.00 | 0.00 | 86 | 1014.5 |
| 20260508011605 | 46 | 120 | 0.0 | 0.0 | 0.00 | 0.00 | 0.00 | 87 | 1014.6 |
| 20260508010057 | 46 | 122 | 0.0 | 0.0 | 0.00 | 0.00 | 0.00 | 87 | 1014.7 |
| 20260508004600 | 46 | 121 | 0.0 | 1.0 | 0.00 | 0.00 | 0.00 | 87 | 1014.6 |
| 20260508003055 | 46 | 122 | 0.0 | 1.0 | 0.00 | 0.00 | 0.00 | 86 | 1014.7 |
| 20260508001553 | 46 | 120 | 0.0 | 0.0 | 0.00 | 0.00 | 0.00 | 85 | 1014.7 |
| 20260508000052 | 47 | 120 | 0.0 | 0.0 | 0.00 | 0.00 | 0.00 | 85 | 1014.7 |
| 20260507234548 | 47 | 121 | 0.0 | 0.0 | 0.00 | 0.00 | 0.00 | 84 | 1014.7 |
| 20260507233046 | 48 | 120 | 0.0 | 1.0 | 0.00 | 0.00 | 0.00 | 84 | 1014.7 |
| 20260507231545 | 48 | 121 | 0.0 | 1.0 | 0.00 | 0.00 | 0.00 | 84 | 1014.8 |
| 20260507230100 | 48 | 120 | 0.0 | 0.0 | 0.00 | 0.00 | 0.00 | 85 | 1014.8 |
| 20260507224542 | 48 | 120 | 0.0 | 1.0 | 0.00 | 0.00 | 0.00 | 85 | 1014.7 |
| 20260507223042 | 47 | 120 | 0.0 | 0.0 | 0.00 | 0.00 | 0.00 | 86 | 1014.7 |
| 20260507221543 | 47 | 121 | 0.0 | 0.0 | 0.00 | 0.00 | 0.00 | 86 | 1014.6 |
| 20260507220042 | 47 | 120 | 0.0 | 1.0 | 0.00 | 0.00 | 0.00 | 85 | 1014.6 |
| 20260507214540 | 48 | 120 | 0.0 | 0.0 | 0.00 | 0.00 | 0.00 | 84 | 1014.5 |
| 20260507213039 | 48 | 119 | 0.0 | 0.0 | 0.00 | 0.00 | 0.00 | 84 | 1014.5 |
| 20260507211542 | 48 | 123 | 0.0 | 0.0 | 0.00 | 0.00 | 0.00 | 82 | 1014.5 |
| 20260507210040 | 50 | 119 | 0.0 | 0.0 | 0.00 | 0.00 | 0.00 | 79 | 1014.4 |
| 20260507204536 | 51 | 118 | 0.0 | 1.0 | 0.00 | 0.00 | 0.00 | 78 | 1014.2 |
| 20260507203105 | 51 | 121 | 0.0 | 1.0 | 0.00 | 0.00 | 0.00 | 77 | 1014.1 |
| 20260507201536 | 52 | 107 | 0.0 | 1.0 | 0.00 | 0.00 | 0.00 | 76 | 1014.0 |
| 20260507200036 | 52 | 120 | 0.0 | 2.0 | 0.00 | 0.00 | 0.00 | 76 | 1013.9 |
| 20260507194536 | 52 | 129 | 0.0 | 2.0 | 0.00 | 0.00 | 0.00 | 77 | 1013.7 |
| 20260507193038 | 53 | 98 | 0.0 | 2.0 | 0.00 | 0.00 | 0.00 | 77 | 1013.6 |
| 20260507191537 | 53 | 124 | 0.0 | 4.0 | 0.00 | 0.00 | 0.00 | 78 | 1013.7 |
| 20260507190033 | 52 | 101 | 0.0 | 2.0 | 0.00 | 0.00 | 0.00 | 81 | 1013.6 |
| 20260507184531 | 53 | 293 | 0.0 | 0.0 | 0.00 | 0.00 | 0.00 | 82 | 1013.6 |
| 20260507183029 | 53 | 294 | 0.0 | 1.0 | 0.00 | 0.00 | 0.00 | 78 | 1013.6 |
| 20260507181527 | 53 | 292 | 0.0 | 1.0 | 0.00 | 0.00 | 0.00 | 75 | 1013.5 |
| 20260507180026 | 54 | 302 | 0.0 | 1.0 | 0.00 | 0.00 | 0.00 | 72 | 1013.5 |
| 20260507174535 | 55 | 271 | 0.0 | 4.0 | 0.00 | 0.00 | 0.00 | 67 | 1013.4 |
| 20260507173048 | 56 | 114 | 0.0 | 3.0 | 0.00 | 0.00 | 0.00 | 64 | 1013.3 |
| 20260507171526 | 56 | 125 | 0.0 | 4.0 | 0.00 | 0.00 | 0.00 | 63 | 1013.3 |
| 20260507170025 | 57 | 92 | 1.0 | 6.0 | 0.00 | 0.00 | 0.00 | 63 | 1013.3 |
| 20260507164523 | 57 | 127 | 1.0 | 5.0 | 0.00 | 0.00 | 0.00 | 62 | 1013.3 |
| 20260507163026 | 57 | 119 | 1.0 | 4.0 | 0.00 | 0.00 | 0.00 | 62 | 1013.2 |
| 20260507161525 | 57 | 120 | 1.0 | 5.0 | 0.00 | 0.00 | 0.00 | 62 | 1013.2 |
| 20260507160022 | 57 | 140 | 1.0 | 8.0 | 0.00 | 0.00 | 0.00 | 60 | 1013.3 |
| 20260507154525 | 58 | 163 | 2.0 | 8.0 | 0.00 | 0.00 | 0.00 | 59 | 1013.3 |
| 20260507153020 | 59 | 103 | 2.0 | 8.0 | 0.00 | 0.00 | 0.00 | 57 | 1013.2 |
| 20260507151518 | 59 | 110 | 1.0 | 5.0 | 0.00 | 0.00 | 0.00 | 61 | 1013.3 |
| 20260507150032 | 57 | 107 | 1.0 | 6.0 | 0.00 | 0.00 | 0.00 | 62 | 1013.4 |
| 20260507144518 | 57 | 98 | 1.0 | 5.0 | 0.00 | 0.00 | 0.00 | 63 | 1013.6 |
| 20260507143014 | 57 | 101 | 2.0 | 6.0 | 0.00 | 0.00 | 0.00 | 61 | 1013.7 |
| 20260507141513 | 58 | 123 | 2.0 | 6.0 | 0.00 | 0.00 | 0.00 | 60 | 1013.9 |
| 20260507140014 | 58 | 113 | 1.0 | 6.0 | 0.00 | 0.00 | 0.00 | 59 | 1013.9 |
| 20260507134511 | 60 | 124 | 2.0 | 6.0 | 0.00 | 0.00 | 0.00 | 56 | 1014.0 |
| 20260507133011 | 59 | 136 | 3.0 | 7.0 | 0.00 | 0.00 | 0.00 | 57 | 1014.0 |
| 20260507131506 | 58 | 122 | 1.0 | 8.0 | 0.00 | 0.00 | 0.00 | 60 | 1014.2 |
| 20260507130005 | 57 | 209 | 2.0 | 10.0 | 0.00 | 0.00 | 0.00 | 59 | 1014.3 |
| 20260507124503 | 57 | 124 | 2.0 | 8.0 | 0.00 | 0.00 | 0.00 | 59 | 1014.4 |
| 20260507123002 | 57 | 116 | 2.0 | 7.0 | 0.00 | 0.00 | 0.00 | 60 | 1014.4 |
| 20260507121602 | 56 | 82 | 3.0 | 6.0 | 0.00 | 0.00 | 0.00 | 61 | 1014.5 |
| 20260507120056 | 56 | 86 | 1.0 | 7.0 | 0.00 | 0.00 | 0.00 | 63 | 1014.6 |
| 20260507114608 | 55 | 133 | 1.0 | 6.0 | 0.00 | 0.00 | 0.00 | 66 | 1014.6 |
| 20260507113050 | 54 | 113 | 2.0 | 6.0 | 0.00 | 0.00 | 0.00 | 67 | 1014.7 |
| 20260507111546 | 54 | 120 | 2.0 | 6.0 | 0.00 | 0.00 | 0.00 | 69 | 1014.7 |
| 20260507110045 | 52 | 99 | 3.0 | 6.0 | 0.00 | 0.00 | 0.00 | 73 | 1014.9 |
| 20260507104540 | 51 | 127 | 2.0 | 5.0 | 0.00 | 0.00 | 0.00 | 74 | 1015.1 |
| 20260507103043 | 50 | 140 | 1.0 | 6.0 | 0.00 | 0.00 | 0.00 | 77 | 1015.2 |
| 20260507101537 | 49 | 90 | 3.0 | 5.0 | 0.00 | 0.00 | 0.00 | 77 | 1015.2 |
| 20260507100035 | 48 | 116 | 2.0 | 6.0 | 0.00 | 0.00 | 0.00 | 79 | 1015.1 |
| 20260507094534 | 48 | 348 | 2.0 | 5.0 | 0.00 | 0.00 | 0.00 | 80 | 1015.1 |
| 20260507093027 | 47 | 135 | 1.0 | 5.0 | 0.00 | 0.00 | 0.00 | 81 | 1015.1 |
| 20260507091531 | 47 | 124 | 1.0 | 4.0 | 0.00 | 0.00 | 0.00 | 82 | 1015.1 |
| 20260507090024 | 46 | 92 | 2.0 | 6.0 | 0.00 | 0.00 | 0.00 | 82 | 1015.2 |
| 20260507084522 | 46 | 109 | 2.0 | 5.0 | 0.00 | 0.00 | 0.00 | 82 | 1015.2 |
| 20260507083021 | 46 | 129 | 2.0 | 5.0 | 0.00 | 0.00 | 0.00 | 83 | 1015.1 |
| 20260507081520 | 46 | 119 | 0.0 | 3.0 | 0.00 | 0.00 | 0.00 | 83 | 1015.0 |